Regional Weather Roundup
Issued by NWS

Home | Current Version | Previous Version | Graphics & Text | Print | Product List | Glossary On
Versions: 1 2 3 4 5 6 7 8 9 10 11 12 13 14 15 16 17 18 19 20 21 22 23 24 25 26 27 28 29 30 31 32 33 34 35 36 37 38 39 40 41 42 43 44 45 46 47 48 49 50
000
ASUS43 KBIS 301710
RWRND

NORTH DAKOTA REGIONAL WEATHER ROUNDUP
NATIONAL WEATHER SERVICE BISMARCK ND
1200 PM CDT MON MAR 30 2015

NOTE: "FAIR" INDICATES FEW OR NO CLOUDS BELOW 12,000 FEET WITH NO
SIGNIFICANT WEATHER AND/OR OBSTRUCTIONS TO VISIBILITY.


NDZ001>003-009>011-017-301800-
NORTHWEST NORTH DAKOTA

CITY           SKY/WX    TMP DP  RH WIND       PRES   REMARKS
WILLISTON      MOSUNNY   60  36  40 NW16      29.95R
MINOT          SUNNY     58  37  45 W22       29.86R
MINOT AFB      SUNNY     55  42  60 NW17      29.85R
$$

NDZ018>021-031>035-040>046-301800-
SOUTHWEST NORTH DAKOTA

CITY           SKY/WX    TMP DP  RH WIND       PRES   REMARKS
BISMARCK       SUNNY     60  36  40 NW17G26   29.88R
DICKINSON      SUNNY     60  35  39 NW21G31   29.94R
GARRISON         N/A     58  39  49 NW20      29.87R
HETTINGER ARPT MOSUNNY   62  32  32 NW22G37   29.97R
$$

NDZ004>008-012>016-024-026-027-054-301800-
NORTHEAST NORTH DAKOTA

CITY           SKY/WX    TMP DP  RH WIND       PRES   REMARKS
GRAND FORKS    LGT RAIN  43  37  79 NE6       29.82R
GRND FRKS AFB  CLOUDY    44  37  76 N10       29.87R
DEVILS LAKE    MOSUNNY   46  37  71 N5        29.81R
$$

NDZ022-023-025-028>030-036>039-047>053-301800-
SOUTHEAST NORTH DAKOTA

CITY           SKY/WX    TMP DP  RH WIND       PRES   REMARKS
FARGO          CLOUDY    51  35  54 SE13      29.80F
JAMESTOWN      SUNNY     59  35  40 W17G23    29.79R
$$




USA.gov is the U.S. government's official web portal to all federal, state and local government web resources and services.